Wind_Speed
50 48 45 43 41 40 39 40 40 40 40 39 38 37 36 35 34 34 35 37 38 39 40 40 40 39 39 38 37 37 37 37 37 37 37 38 38 38 38 37 37 37 37 36 36 37 38 38 38 38 37 37 36 36 36 36 37 37 37 37 37 37 37 38 38 39 40 41 42 42 42 43 43 43 43 43 43 43 43 43 43 43 43 43 43 43
49 46 43 40 38 37 37 38 39 39 39 39 38 37 36 35 34 34 35 36 37 38 39 39 39 38 38 38 37 37 37 37 37 38 38 38 38 39 39 39 38 38 37 37 37 37 38 38 39 38 37 37 36 36 36 36 36 36 36 36 36 36 37 37 38 39 40 41 42 42 42 42 42 42 43 43 43 43 43 43 43 43 43 43 43 43
47 45 42 38 36 35 36 37 38 38 39 38 38 37 36 36 35 34 34 35 36 37 37 37 38 38 38 38 38 38 38 38 38 38 38 39 39 39 39 40 39 39 38 37 37 37 38 39 39 38 37 37 36 36 36 36 36 36 36 36 36 36 37 38 38 39 41 41 42 42 42 42 42 42 42 42 43 43 43 43 43 43 43 44 43 43
45 44 41 38 36 35 35 35 36 37 38 38 38 37 36 36 35 35 34 35 35 36 36 37 37 38 38 38 38 38 38 38 38 39 39 39 40 40 40 40 40 40 39 38 38 38 38 39 39 38 37 37 36 36 36 36 36 36 36 36 37 37 38 38 39 40 41 42 42 42 42 42 42 42 42 42 43 43 43 43 43 44 44 44 44 43
43 42 41 38 37 36 35 35 36 37 38 38 38 38 37 36 36 35 34 34 34 35 35 36 37 37 38 38 39 39 39 39 40 40 40 40 41 41 41 41 41 40 39 38 38 38 39 39 39 38 37 37 36 36 36 36 36 36 37 37 37 38 39 39 40 41 41 42 43 43 43 42 42 42 42 42 42 43 43 43 44 44 44 44 44 43
42 41 40 39 38 37 36 36 36 37 38 39 39 38 37 36 35 35 34 34 34 34 35 36 36 37 38 38 39 39 40 40 41 41 41 41 41 41 41 42 41 41 39 39 38 38 39 39 39 38 37 37 37 37 37 37 37 37 38 38 39 39 40 40 41 42 42 42 43 43 43 43 42 42 42 42 42 43 43 43 43 44 44 43 43 43
40 40 40 39 39 38 37 36 36 37 38 39 39 39 37 36 35 34 34 33 33 34 34 35 36 36 37 38 39 39 40 41 41 42 42 42 42 42 41 41 41 40 39 38 38 38 39 39 38 38 37 37 37 37 37 38 38 39 39 40 40 41 41 41 42 42 42 43 43 43 43 43 43 43 43 43 43 43 43 43 43 43 43 43 42 42
40 39 39 40 39 38 37 36 36 37 38 39 39 38 37 36 35 34 33 33 33 33 34 34 35 35 36 37 38 39 39 40 41 41 42 42 41 41 41 40 40 39 39 38 38 38 38 38 38 37 37 36 36 37 37 38 39 40 41 41 41 42 42 42 42 43 43 43 43 43 43 43 43 43 43 43 43 43 43 43 43 43 43 42 42 41
39 39 40 40 39 38 37 36 36 36 37 39 39 38 37 35 35 34 33 33 33 33 33 34 34 34 35 36 37 38 39 40 40 41 41 41 41 40 40 39 39 38 38 38 38 38 38 37 37 36 36 36 36 37 38 39 40 41 42 42 43 43 43 43 43 43 43 43 43 43 42 43 43 43 43 43 43 43 43 43 43 43 43 42 42 41
38 39 40 40 39 38 37 37 37 36 37 38 39 38 37 36 35 34 33 33 33 33 32 33 33 34 34 35 36 37 38 39 40 40 40 40 40 39 39 38 37 37 37 37 37 37 36 36 36 36 36 36 36 37 38 40 41 43 44 44 44 44 44 44 44 43 43 43 42 42 42 42 43 43 43 43 43 43 43 43 43 43 43 42 42 42
36 37 39 40 39 38 38 38 37 37 37 38 39 38 37 36 35 34 33 33 33 32 32 32 32 33 34 35 36 37 38 38 39 39 39 39 39 38 38 37 37 37 36 36 36 36 35 35 35 35 36 36 37 37 39 40 42 44 45 46 46 45 45 44 44 44 43 43 42 42 42 42 42 43 43 43 43 43 43 43 43 43 42 42 42 41
35 37 39 40 39 39 38 38 38 38 39 39 39 38 37 35 34 34 34 33 33 32 32 32 32 32 34 35 36 37 37 38 38 39 39 39 39 38 38 37 36 36 36 36 35 35 35 35 35 35 36 36 37 38 39 41 43 45 46 47 47 46 45 45 44 44 43 43 42 42 42 42 42 42 42 42 43 43 43 43 43 42 42 42 42 41
35 37 39 40 39 39 38 38 38 39 40 41 40 39 37 36 35 34 34 34 33 32 32 31 32 33 34 36 37 37 38 38 38 38 38 38 38 38 38 37 36 35 35 35 35 36 36 36 36 36 36 37 37 38 40 41 43 45 46 47 47 46 45 45 44 44 43 43 42 42 42 42 42 42 42 42 42 43 43 43 43 42 42 42 41 41
36 38 40 40 39 39 38 39 40 41 42 43 42 40 39 37 36 34 34 34 33 32 32 31 31 33 35 37 38 38 38 38 38 38 38 38 38 38 38 37 36 35 35 35 36 37 37 37 37 36 36 37 37 39 40 42 44 46 47 47 46 46 45 44 44 43 43 43 42 42 42 42 42 42 42 42 42 43 43 43 42 42 42 41 41 40
37 39 40 40 40 39 39 40 41 43 44 44 43 42 40 38 37 35 34 33 33 32 31 31 31 33 36 38 39 40 39 39 39 39 38 38 38 38 37 37 36 36 35 36 37 37 38 37 37 36 36 36 38 39 41 43 45 46 47 47 46 45 44 44 43 43 43 42 42 42 42 42 41 41 42 42 42 43 43 43 42 42 41 41 40 40
37 39 41 41 40 40 41 42 44 45 46 45 44 43 41 39 37 36 34 34 33 32 31 31 32 35 38 40 41 41 40 40 40 39 38 38 38 37 37 37 37 36 36 36 37 38 38 37 37 36 36 37 38 40 43 44 46 46 46 46 45 44 44 44 43 43 42 42 42 42 41 41 41 41 42 42 42 42 43 42 42 42 41 40 40 39
38 40 41 42 42 42 43 45 46 47 47 46 45 43 42 40 38 36 35 34 33 32 32 32 35 38 40 42 42 41 41 40 40 39 38 38 37 37 37 37 37 37 37 37 37 38 37 37 36 36 36 37 39 42 44 45 46 46 46 45 45 44 44 44 44 43 43 42 42 41 41 41 41 41 41 42 42 42 42 42 42 41 41 40 39 38
41 42 43 43 44 45 46 47 48 47 46 45 44 43 42 40 38 37 36 35 34 33 33 35 38 41 43 43 43 42 41 40 40 39 38 37 36 36 36 36 36 37 37 37 37 37 36 36 36 36 37 39 40 43 44 45 46 45 45 45 45 45 45 44 44 43 43 42 42 41 41 41 41 41 41 42 42 42 42 42 41 41 40 39 38 37
42 43 44 45 46 47 48 48 48 47 45 44 43 42 40 39 38 37 36 36 35 34 36 38 41 43 44 44 43 42 40 40 39 38 37 36 35 35 34 35 35 36 36 36 35 35 36 36 36 37 38 40 42 43 45 45 45 45 45 45 45 45 45 45 44 44 43 42 42 41 41 41 41 41 42 42 42 42 42 42 41 40 39 38 37 36
43 44 45 46 48 48 49 48 47 46 44 43 42 41 40 39 38 38 37 37 36 36 37 40 42 43 44 44 43 42 41 39 38 37 36 35 34 33 33 33 34 34 35 35 35 35 36 37 37 39 40 41 43 44 44 45 45 45 45 46 46 46 45 45 44 44 43 42 42 41 41 41 41 42 42 42 42 42 42 41 40 39 38 37 36 35
43 44 45 47 47 47 47 46 45 44 43 42 41 41 40 39 39 38 38 38 38 38 39 41 43 44 44 44 43 42 41 39 38 37 36 35 34 33 33 33 34 35 35 35 35 36 37 38 39 40 41 42 43 44 44 45 46 46 46 46 46 46 45 45 44 43 43 42 42 42 41 42 42 42 42 42 42 42 41 41 40 38 37 36 35 34
44 45 45 46 45 45 44 44 43 43 42 41 41 40 40 39 39 39 39 39 39 40 41 42 44 44 45 44 44 43 41 40 38 38 37 35 35 34 34 34 35 36 36 36 36 37 37 38 39 40 41 42 43 44 45 46 47 47 47 47 46 46 45 44 44 43 43 42 42 42 42 42 42 42 42 42 42 41 41 40 39 37 36 35 34 33
44 45 45 44 43 43 43 42 42 42 41 41 41 41 41 40 40 39 39 40 40 42 43 44 45 46 46 45 44 43 41 40 39 38 38 37 36 36 35 35 36 36 36 36 36 37 38 39 40 41 42 44 45 46 47 47 47 47 47 47 46 46 45 44 43 43 43 42 42 42 42 42 42 42 42 42 42 41 40 39 37 36 35 34 33 32
43 44 43 43 42 42 42 42 42 41 41 41 42 42 42 41 41 41 41 41 42 43 44 45 46 47 46 46 44 43 42 40 39 39 38 37 37 36 36 35 35 35 36 36 36 37 39 40 41 43 44 45 46 47 48 48 48 47 47 46 46 45 44 44 43 43 43 42 42 42 42 42 42 42 42 41 41 40 39 37 36 35 34 33 32 32
42 43 42 42 42 42 42 42 42 42 42 43 43 43 43 43 43 43 43 43 44 44 45 46 47 47 46 45 44 43 42 40 39 38 38 37 36 35 35 34 35 36 37 37 38 40 41 43 44 45 46 47 48 48 48 48 48 47 47 46 45 45 44 44 43 43 43 42 42 42 42 42 42 42 41 40 40 38 37 36 35 34 33 32 32 31
42 42 42 42 43 43 43 43 43 43 44 44 44 45 45 45 45 44 44 44 45 45 46 46 46 46 45 43 42 41 40 39 38 37 36 36 35 35 35 35 36 38 39 40 41 42 44 45 46 47 47 48 48 48 48 48 47 47 46 45 45 44 44 44 43 43 42 42 42 42 42 42 41 41 40 39 38 37 36 35 34 33 32 32 31 31
43 43 43 43 44 44 44 44 45 45 45 45 45 45 46 46 46 45 45 45 45 45 45 45 44 43 42 41 40 39 38 37 36 36 35 36 36 36 37 38 39 40 41 43 44 45 45 46 47 48 48 48 48 48 47 47 46 46 46 45 45 44 44 43 43 43 42 42 42 41 41 41 40 40 39 38 36 35 34 33 33 32 31 31 31 30
44 44 45 45 45 46 46 46 46 45 45 45 45 45 46 45 45 45 45 44 44 43 43 42 41 40 38 37 37 36 36 35 35 35 36 37 38 39 39 40 41 42 43 44 45 46 46 46 47 47 48 48 47 47 47 47 46 46 46 45 45 44 44 43 43 42 42 41 41 41 40 40 39 38 37 36 35 34 33 32 32 31 31 31 30 30
45 46 46 46 47 47 46 46 46 45 44 44 44 44 44 44 43 43 42 41 41 40 39 38 37 36 35 35 35 35 35 35 36 37 38 39 40 41 41 42 43 43 44 44 45 46 46 46 47 47 47 47 47 47 47 47 47 46 46 45 45 44 43 43 42 42 41 41 40 40 39 38 37 36 35 35 34 33 32 32 31 31 30 30 30 30
47 47 47 47 47 47 46 46 45 44 44 43 43 42 41 40 39 39 38 37 37 36 36 35 35 34 34 34 34 35 36 36 38 39 40 41 41 42 42 42 43 43 44 44 45 45 46 46 46 47 47 47 48 47 47 47 47 47 46 45 45 44 43 42 42 41 40 40 39 39 38 37 36 35 34 34 33 32 32 31 31 30 30 30 30 29
47 47 47 47 47 46 46 45 44 44 43 42 41 39 37 36 35 35 34 34 34 34 34 34 34 34 34 35 35 36 37 38 39 40 41 41 42 42 42 42 43 43 44 44 45 45 46 46 46 47 47 48 48 48 48 48 47 47 46 45 44 43 42 42 41 40 40 39 38 37 36 36 35 34 33 33 32 32 31 31 30 30 30 30 29 29
47 47 46 46 46 46 45 44 44 43 41 40 38 36 34 33 33 33 33 33 34 34 34 35 35 35 36 37 37 38 39 40 40 40 41 41 41 42 42 42 42 43 44 44 45 45 46 47 47 47 47 48 48 48 48 48 47 46 46 45 44 43 42 41 40 40 39 38 37 36 35 35 34 33 33 32 32 31 31 31 30 30 30 30 29 29
46 46 46 46 46 45 45 44 43 41 40 38 36 34 33 32 33 33 34 34 35 35 36 36 37 38 38 39 39 39 40 40 40 41 41 41 41 42 42 42 43 43 44 45 45 46 46 47 47 48 48 48 48 48 48 48 47 46 45 43 43 42 41 40 39 38 38 37 36 35 35 34 33 33 32 32 32 31 31 30 30 30 30 29 29 29
45 45 46 46 45 45 44 43 41 40 38 37 35 34 34 34 34 35 36 36 37 38 38 39 39 39 40 40 40 40 40 40 41 41 41 41 42 42 42 43 43 44 45 45 46 46 47 48 48 48 48 48 48 48 47 47 46 45 44 42 41 40 40 39 38 37 37 36 35 34 34 34 33 33 32 32 32 31 31 30 30 30 29 29 29 29
45 45 46 45 45 44 43 42 40 39 38 37 36 36 36 36 36 37 38 38 39 39 40 40 40 40 40 40 40 40 40 41 41 42 42 42 42 42 43 43 44 44 45 46 46 47 47 48 48 48 48 48 48 48 47 46 45 44 43 41 40 39 39 38 37 36 36 35 35 34 34 34 33 33 33 32 32 32 31 31 30 30 30 29 29 29
45 46 46 45 44 42 41 41 40 39 38 38 37 37 37 38 38 39 39 40 40 40 40 40 41 41 41 40 40 40 40 41 41 42 42 42 43 43 43 44 45 45 46 47 47 47 47 48 48 48 48 47 47 47 46 45 44 42 41 40 39 38 38 37 36 36 35 35 35 34 34 34 34 33 33 33 32 32 32 31 31 30 30 30 30 29
46 46 45 44 42 41 41 40 40 39 39 39 39 39 39 39 39 39 40 40 40 40 40 40 41 41 41 41 41 41 41 41 41 41 42 43 43 44 44 45 46 46 46 47 47 48 48 48 48 48 48 47 46 45 45 44 42 41 40 39 38 37 37 37 36 36 35 35 35 35 35 34 34 34 34 33 33 32 32 31 31 31 30 30 30 30
46 45 44 43 42 41 41 40 40 40 40 40 40 40 40 40 40 40 40 40 40 40 40 41 41 41 41 41 41 41 41 41 41 42 42 43 44 45 45 46 47 47 47 47 48 48 48 48 47 47 47 46 45 44 43 42 40 40 39 38 37 37 37 37 37 36 36 36 35 35 35 35 35 34 34 34 33 33 32 32 31 31 31 30 30 30
46 45 44 43 42 42 41 41 41 41 41 41 41 41 41 41 41 41 41 41 41 41 41 41 41 41 41 41 40 40 41 41 42 42 43 44 45 46 46 46 47 48 48 48 48 48 48 48 47 47 46 45 44 43 41 40 39 38 38 38 38 37 37 37 37 37 37 36 36 36 36 35 35 34 34 34 33 33 32 32 31 31 31 30 30 30
46 45 44 43 43 43 43 43 43 42 42 42 42 42 42 42 42 42 41 41 41 41 41 41 41 41 41 40 40 40 41 41 42 43 44 45 46 46 47 47 48 48 49 49 49 48 48 47 47 46 45 43 42 41 40 39 38 38 38 38 38 38 38 37 37 37 37 37 37 37 36 36 35 35 34 34 33 32 32 32 31 31 31 30 30 30
45 45 44 44 44 44 44 44 44 44 44 44 43 43 43 43 42 42 42 42 41 41 41 41 41 41 41 40 40 40 41 42 42 43 44 45 46 47 48 48 48 48 48 48 48 48 47 46 45 44 43 42 41 40 39 39 38 38 38 38 38 39 39 38 38 38 38 38 37 37 36 36 35 35 34 33 33 32 32 31 31 31 31 30 30 30
46 46 46 46 46 46 46 46 46 46 46 45 45 44 44 43 43 42 42 41 41 41 42 41 41 41 41 41 41 41 41 42 43 44 45 46 47 48 48 48 48 48 48 47 47 47 46 45 44 43 42 41 40 39 39 39 39 39 39 39 39 39 39 39 39 38 38 38 38 37 36 36 35 35 34 33 33 32 32 31 31 31 31 30 30 30
48 48 48 48 48 48 48 48 47 47 46 46 45 44 44 43 43 42 42 42 42 42 42 41 41 41 40 40 41 41 42 43 44 45 46 47 48 48 48 48 48 48 47 46 46 45 45 44 42 41 41 41 40 39 39 40 40 40 40 40 40 40 40 40 39 39 38 38 37 37 36 36 35 34 34 33 32 32 32 31 31 31 31 30 30 30
50 50 50 50 50 50 49 48 47 47 46 45 44 44 43 43 42 42 42 42 42 42 41 41 41 41 41 40 41 41 42 43 45 46 47 48 48 48 48 48 47 47 46 45 44 44 43 42 42 41 41 40 40 40 40 40 41 41 41 41 40 40 40 40 39 39 38 38 37 37 36 36 35 35 34 33 33 32 32 32 32 31 31 31 31 30
51 51 51 51 50 49 48 47 46 46 45 44 44 43 42 42 42 42 41 41 41 41 41 41 40 40 40 41 41 41 42 44 45 47 47 48 48 48 47 47 47 46 45 44 44 43 42 41 41 41 41 41 41 41 41 41 41 41 41 41 41 40 40 40 39 38 38 38 37 37 36 36 35 35 34 34 33 33 33 33 33 32 32 32 31 31
51 51 50 50 49 47 47 46 45 44 44 43 43 42 42 42 42 41 41 41 41 41 41 41 40 40 40 41 41 42 43 44 45 46 47 47 47 47 47 46 46 45 44 43 43 42 41 41 41 41 41 41 41 41 41 41 41 41 41 41 40 40 40 39 39 38 38 38 37 37 36 36 36 35 35 35 34 34 34 34 34 33 33 33 32 32
50 50 49 48 47 46 45 45 44 43 43 43 42 42 42 42 41 41 41 41 40 40 40 40 40 40 40 41 42 43 44 44 45 45 46 46 46 46 46 45 45 44 43 43 42 42 41 41 42 42 42 42 42 42 42 42 41 41 41 41 40 40 40 39 39 38 38 38 38 37 37 37 36 36 36 36 35 35 35 35 35 35 34 34 34 33
49 48 47 46 45 45 44 44 43 43 42 42 42 42 41 41 41 41 40 40 40 40 40 40 40 41 41 42 43 44 44 44 45 45 45 45 45 45 45 44 44 43 43 42 42 42 42 42 42 42 42 42 42 43 42 42 41 41 41 41 40 40 39 39 39 39 38 38 38 38 38 38 38 37 37 37 37 36 36 36 36 36 36 35 35 34
47 46 46 45 44 43 43 43 42 42 41 41 41 40 40 40 40 40 40 40 40 40 40 40 41 42 43 43 44 44 44 44 44 44 44 44 44 44 44 43 43 42 42 42 42 42 43 43 43 43 43 42 42 43 42 42 41 41 40 40 40 40 40 40 40 39 39 39 39 39 39 39 39 39 39 38 38 38 38 37 37 37 37 36 36 35
45 44 44 43 43 42 42 41 41 40 40 40 39 39 39 39 40 40 40 40 40 41 41 42 42 43 44 44 44 44 44 43 43 43 43 43 43 43 42 42 42 42 42 42 43 43 43 43 44 44 43 42 42 42 42 42 41 41 40 40 40 40 40 40 40 40 40 40 40 40 40 40 40 40 40 40 39 39 39 38 38 38 38 37 37 36
43 42 42 41 41 41 40 40 39 39 38 38 38 38 38 39 39 40 40 41 41 42 42 43 43 44 44 44 43 43 43 42 42 42 42 42 42 42 42 42 42 42 42 42 43 43 43 43 44 44 44 43 42 41 41 42 42 41 41 41 41 40 41 41 41 41 41 41 41 41 41 41 41 41 41 40 40 40 39 39 39 38 38 38 37 37
Wind_Direction
273 272 271 273 274 274 270 266 263 261 259 257 255 254 254 255 257 259 262 263 264 264 264 264 265 265 266 267 268 270 272 274 276 277 278 279 280 282 284 287 288 290 290 291 291 290 290 290 291 292 293 294 295 296 298 299 300 302 303 305 306 308 309 311 312 313 314 315 316 316 317 317 318 318 318 319 320 321 322 323 324 324 325 326 326 327
272 272 271 272 272 271 269 266 263 261 259 257 254 253 253 254 256 258 261 262 263 264 264 265 265 265 265 266 267 269 271 273 275 276 277 278 280 282 283 285 287 289 289 289 289 288 288 289 289 290 291 293 294 295 297 298 300 301 303 305 307 309 310 312 313 314 315 316 316 317 317 317 318 318 318 319 319 320 321 322 323 324 324 325 325 326
271 270 269 269 269 270 270 268 265 262 259 256 254 253 253 254 255 257 259 261 262 263 264 265 265 265 265 265 266 268 271 273 275 276 277 278 279 281 283 285 286 287 287 287 286 286 286 286 287 289 290 291 293 294 296 298 299 301 303 305 307 309 311 313 314 315 316 316 316 317 317 317 317 318 318 318 319 320 321 322 322 323 324 324 324 325
269 268 266 265 266 269 271 271 268 264 259 256 254 253 253 254 255 256 258 260 261 263 264 265 265 265 265 265 267 269 271 273 275 276 277 278 279 281 282 283 285 285 285 285 284 284 284 285 286 287 289 290 292 294 296 297 299 301 303 305 307 309 311 313 314 315 315 316 316 316 317 317 317 317 318 318 319 320 320 321 322 322 323 323 324 324
267 265 263 262 264 268 272 273 271 266 260 256 253 253 253 254 255 255 256 258 261 263 265 265 266 266 266 267 268 270 272 274 275 277 278 279 279 280 281 282 283 283 283 282 282 282 282 283 284 286 288 290 292 294 296 297 299 301 303 305 307 309 311 313 314 314 315 315 315 316 316 316 316 317 317 317 318 319 320 320 321 322 322 322 323 323
263 261 259 259 262 267 272 274 272 267 261 256 253 253 253 254 254 255 256 259 261 264 265 266 266 267 268 269 270 272 274 275 276 277 278 279 279 280 281 281 281 281 281 280 279 280 280 281 283 285 287 289 291 293 296 298 299 301 303 304 306 308 310 311 313 313 314 314 314 315 315 315 315 316 316 317 317 318 319 320 320 321 321 322 322 323
259 257 256 257 261 266 271 274 273 268 262 256 253 252 253 253 254 255 256 259 262 264 266 266 267 268 269 271 272 274 275 276 277 278 278 279 279 280 280 280 280 280 279 278 277 278 279 280 282 285 287 289 291 293 296 298 299 301 302 304 306 307 309 310 312 312 313 313 313 314 314 314 315 315 315 316 316 317 318 319 319 320 321 321 321 321
255 253 252 255 259 265 270 274 274 269 261 255 252 252 252 253 254 255 257 259 262 264 266 267 268 269 271 272 274 276 277 278 278 278 279 279 279 279 279 279 279 278 277 276 276 276 278 280 282 285 287 289 291 293 296 298 299 301 302 304 305 307 308 309 310 311 312 312 312 313 313 314 314 314 315 315 316 316 317 318 318 319 319 320 320 320
251 248 249 252 257 263 269 273 273 269 261 255 251 251 251 252 253 255 257 260 263 264 266 267 268 270 272 273 275 277 278 279 279 279 279 279 279 279 278 278 277 276 274 274 274 275 277 280 282 285 287 289 291 293 296 298 299 301 302 303 304 306 307 308 309 310 310 311 312 312 313 313 313 314 314 315 315 316 316 317 317 318 318 318 319 318
246 245 247 250 255 261 266 270 271 267 260 254 251 250 251 252 254 256 258 260 262 264 265 266 268 270 273 275 276 278 279 279 280 280 280 279 279 278 277 276 274 273 272 272 273 275 277 280 283 285 287 289 291 293 296 298 300 301 302 303 304 305 306 307 308 309 310 310 311 311 312 312 313 313 314 314 315 316 316 317 317 317 317 318 318 317
243 244 246 249 253 257 262 266 267 265 260 254 251 250 251 252 254 257 259 261 262 262 264 266 268 271 274 276 277 278 280 280 281 281 281 280 279 278 276 274 272 271 271 272 274 276 278 281 284 286 287 289 291 293 296 298 300 301 302 303 304 305 306 307 307 308 309 310 310 311 312 312 312 313 313 314 315 315 316 316 317 317 317 317 317 316
241 243 246 249 252 255 258 261 263 263 260 256 253 251 252 253 255 258 260 261 262 262 263 265 269 272 275 277 278 279 280 281 282 282 282 281 280 278 275 273 272 272 272 273 275 277 280 282 284 286 287 289 291 293 295 298 299 301 301 302 303 304 305 306 307 308 309 309 310 311 311 312 312 312 313 314 314 315 315 316 316 316 316 316 316 315
239 243 246 249 252 254 256 258 260 260 259 257 254 253 254 254 256 258 260 261 261 262 263 266 270 274 277 278 279 280 281 282 283 283 283 282 280 278 275 274 273 273 274 275 277 278 280 282 284 285 287 289 291 293 295 297 299 300 300 301 301 303 304 305 306 307 308 309 310 311 311 311 312 312 313 313 314 315 315 316 316 316 315 315 315 314
238 241 245 249 252 255 256 258 258 258 258 256 255 254 254 255 256 257 258 259 260 261 263 267 271 275 278 279 280 281 282 283 284 284 283 282 280 278 276 274 273 273 274 275 277 278 280 282 283 285 287 289 291 294 296 297 298 298 299 299 300 302 303 305 306 307 309 310 310 311 311 311 312 312 312 313 314 314 315 315 315 315 315 314 313 313
238 241 244 248 252 254 256 257 258 257 257 255 254 253 254 254 255 256 257 258 259 260 263 267 272 276 278 279 280 281 282 283 284 284 283 282 280 278 276 274 273 272 273 273 275 276 278 281 283 285 287 290 293 295 296 297 297 297 297 298 299 301 303 305 306 308 309 310 311 311 311 311 312 312 312 313 313 314 314 314 314 314 313 313 312 312
241 243 245 248 251 253 255 256 257 256 256 254 252 251 252 253 254 256 256 257 258 259 262 267 272 275 276 277 278 280 281 283 283 283 283 282 280 278 276 274 273 271 271 271 272 275 277 280 283 286 289 292 294 295 296 296 296 296 296 297 299 302 304 305 307 308 309 310 311 311 311 311 311 312 312 313 313 313 313 313 313 313 312 312 311 310
247 248 249 250 252 253 254 255 255 255 254 253 251 250 250 252 254 255 256 256 257 259 263 268 273 275 276 276 276 278 280 281 282 283 282 282 281 279 277 275 273 271 270 271 273 275 279 282 284 287 290 293 294 294 294 294 294 295 296 298 300 303 305 306 307 309 310 310 310 310 311 311 311 311 312 312 312 312 312 312 312 311 311 310 309 309
249 251 252 253 253 253 254 254 254 254 253 251 249 248 249 251 253 255 256 257 258 260 264 268 271 273 274 274 275 276 277 279 280 281 281 281 280 279 277 275 274 272 272 273 276 278 281 284 287 289 291 293 293 293 293 293 293 295 297 299 302 304 306 307 308 309 309 310 310 310 310 310 311 311 311 311 311 311 311 311 311 310 309 309 308 307
249 251 253 255 255 255 254 254 253 252 250 248 247 247 249 251 253 255 256 257 258 260 263 266 269 270 271 272 273 274 275 276 278 279 279 279 278 277 277 276 275 275 276 277 279 282 284 286 288 290 291 292 291 291 292 292 294 296 299 301 303 305 306 307 308 308 309 309 309 309 310 310 310 310 310 310 310 310 310 310 309 309 308 307 306 306
248 250 253 255 255 255 254 253 252 250 248 246 246 247 249 251 254 255 257 258 259 260 262 264 266 267 268 269 270 272 273 274 275 276 276 276 276 275 276 276 276 277 279 280 282 284 286 288 289 290 290 290 290 291 292 293 296 298 301 303 304 305 306 307 307 308 308 309 309 309 309 309 309 309 309 309 309 309 309 308 308 307 306 305 305 304
247 250 252 254 255 254 253 252 250 248 246 246 246 248 250 252 254 256 257 258 259 260 261 263 264 265 266 267 269 270 271 272 273 273 274 273 273 273 274 276 277 279 280 282 284 286 287 289 289 290 289 290 290 291 293 296 298 300 302 303 304 305 306 306 307 307 308 308 309 309 309 309 309 308 308 308 308 308 307 307 306 305 305 304 303 303
246 249 251 253 253 252 251 249 247 246 245 246 247 249 251 253 254 256 258 259 260 261 262 262 263 263 265 266 268 269 269 270 271 272 272 272 272 273 274 275 277 279 281 283 285 287 288 288 288 289 289 290 292 294 296 298 300 301 302 303 304 305 305 306 306 307 307 308 308 308 308 308 308 307 307 307 306 306 306 305 305 304 303 303 302 302
246 249 251 251 250 249 248 247 246 246 246 247 248 250 252 254 255 257 259 261 262 262 262 262 262 263 264 265 267 268 268 268 269 270 271 271 272 274 275 276 278 281 283 284 286 287 287 287 288 289 291 292 294 296 297 299 300 301 302 303 303 304 305 305 306 307 307 307 308 307 307 307 306 306 306 305 305 305 304 304 303 303 302 302 301 301
247 249 250 249 249 248 248 248 248 248 248 249 250 252 253 254 256 257 259 261 262 262 263 263 263 264 265 265 266 267 267 267 268 269 271 272 274 275 276 278 280 282 283 285 286 286 287 288 289 291 292 294 295 297 298 299 300 301 302 302 303 304 304 305 306 306 307 307 307 306 306 306 305 305 304 304 304 303 303 302 302 301 301 300 300 300
247 249 249 249 249 249 250 250 250 251 251 252 253 254 255 255 256 257 258 260 262 263 263 264 264 264 265 265 265 266 266 267 268 270 272 274 275 276 278 280 281 282 283 284 285 286 287 289 291 292 293 294 296 297 298 299 300 301 301 302 303 304 304 305 306 306 306 306 306 305 305 304 304 303 303 303 302 302 301 301 301 300 300 299 299 299
248 248 249 250 251 252 253 254 254 255 255 255 256 256 256 257 257 258 259 260 261 262 263 263 264 264 265 265 265 266 267 268 269 271 273 274 276 277 278 279 281 282 283 284 285 287 289 290 291 292 294 295 296 297 298 299 300 301 302 302 303 304 304 305 305 305 305 305 304 304 303 303 302 302 302 301 301 301 300 300 300 299 299 299 298 298
248 249 250 252 253 255 256 257 258 258 258 258 258 258 258 258 259 259 260 260 261 262 262 263 264 264 264 265 265 266 268 269 270 271 272 274 275 277 279 280 281 282 284 285 287 288 289 290 292 293 294 295 296 297 298 299 300 301 302 302 303 303 304 304 304 304 304 303 303 302 302 301 301 301 300 300 300 299 299 299 298 298 298 298 298 297
249 251 253 255 257 258 260 260 261 260 260 259 259 259 259 259 259 259 259 260 260 261 261 262 263 264 264 265 265 266 267 268 270 271 272 274 276 278 280 281 282 283 285 287 288 289 290 291 292 294 295 296 297 298 299 299 300 301 301 302 302 302 303 303 303 302 302 301 301 300 300 300 299 299 299 298 298 298 298 297 297 297 297 297 296 296
251 253 255 257 259 260 261 261 261 261 260 259 259 259 258 258 258 258 258 259 259 260 260 261 262 262 263 263 264 265 266 268 270 272 274 276 278 280 281 282 284 285 287 288 289 290 291 292 293 294 296 296 297 298 299 299 300 300 300 301 301 301 301 301 301 301 300 299 299 299 298 298 298 297 297 297 297 297 296 296 296 296 296 295 295 295
254 256 258 259 260 260 260 260 260 259 258 258 257 257 257 257 256 256 256 257 257 257 258 259 259 260 260 262 263 265 267 270 272 274 277 279 281 282 283 284 286 287 288 290 291 292 293 293 294 295 296 297 297 298 298 298 299 299 299 300 300 300 300 300 299 299 298 298 297 297 296 296 296 296 295 295 295 295 295 295 295 295 294 294 294 293
256 257 258 258 258 258 258 257 257 256 255 255 254 254 253 253 253 253 253 254 254 254 255 256 257 259 260 262 264 267 270 273 275 277 279 282 283 284 286 287 288 289 290 291 292 293 294 294 294 294 295 296 297 297 297 298 298 298 298 298 299 299 298 298 298 297 296 296 295 295 295 294 294 294 294 294 294 294 294 294 294 294 293 293 292 292
256 256 256 256 256 255 255 254 253 252 252 251 250 250 249 250 250 250 251 251 252 253 254 256 258 260 262 264 267 270 273 276 278 280 282 284 285 286 288 289 290 290 291 292 293 294 294 295 295 294 295 295 295 296 296 297 297 297 297 297 298 297 297 296 296 295 295 294 294 293 293 293 293 293 293 293 293 293 293 293 293 292 292 291 291 291
254 253 252 252 252 252 251 250 249 248 247 246 246 246 247 247 248 249 250 251 252 254 256 259 261 263 265 267 270 272 275 278 281 283 285 286 287 288 289 290 290 291 292 292 293 293 294 295 295 295 295 294 295 295 295 296 296 296 296 296 296 296 295 294 294 293 293 292 292 292 292 292 292 292 292 292 292 292 292 292 291 291 290 290 290 290
249 248 248 248 248 248 247 246 245 244 243 243 244 245 246 247 249 250 252 253 255 257 259 261 263 265 268 270 272 275 278 280 283 285 287 287 288 289 290 290 291 292 292 293 293 294 294 294 294 294 294 294 294 294 294 295 295 295 295 295 294 294 293 293 292 291 291 291 291 291 291 291 291 290 291 291 291 291 290 290 290 290 289 289 288 288
244 244 245 245 245 244 243 242 242 241 242 243 244 246 248 250 251 253 255 257 259 261 262 264 265 267 269 272 274 277 279 282 284 286 287 288 289 289 290 291 291 292 292 293 293 293 293 293 293 293 293 293 293 293 293 294 294 294 294 293 292 292 291 291 290 290 290 290 289 289 290 290 290 290 290 290 290 290 289 289 289 289 288 288 287 287
241 241 242 242 241 241 240 240 240 241 243 245 248 250 252 254 255 257 259 260 262 263 264 265 267 268 270 273 275 278 280 282 284 286 287 288 289 289 290 290 291 291 292 292 292 293 293 293 292 292 292 293 293 293 293 293 293 292 292 291 291 290 289 289 288 289 288 288 288 288 289 289 289 289 289 289 289 289 288 288 288 288 287 287 287 286
239 239 239 239 239 239 239 240 242 244 247 249 252 254 255 257 259 260 261 262 262 263 264 265 267 269 271 274 276 278 281 283 284 286 287 288 289 289 290 290 291 291 291 292 292 292 292 292 292 292 292 292 292 291 292 292 291 290 289 289 288 288 288 287 287 287 287 287 288 288 288 288 288 288 288 288 288 288 288 287 287 287 287 286 286 285
237 238 238 238 238 239 241 243 245 248 250 252 254 256 257 258 258 259 259 260 261 261 263 265 267 269 272 274 277 279 281 283 284 286 287 288 289 289 290 290 291 291 291 291 291 291 291 291 291 291 291 291 290 290 290 289 289 288 288 287 287 286 286 287 287 287 287 287 287 287 287 287 287 288 288 288 287 287 287 287 286 286 286 285 285 284
236 237 238 239 240 242 244 247 249 251 252 253 254 255 255 256 256 256 257 257 259 260 262 264 267 270 273 275 278 280 282 283 285 286 287 288 289 289 290 290 290 291 291 291 291 291 291 290 290 290 289 289 289 289 288 287 287 286 286 286 286 285 285 286 286 286 286 286 286 286 287 287 287 287 287 287 287 286 286 286 286 285 285 285 284 284
236 238 240 241 243 245 247 249 250 251 252 252 252 252 252 252 252 253 254 256 258 260 263 266 269 272 274 277 279 281 283 285 286 287 288 289 289 290 290 290 290 291 291 291 290 290 290 289 289 289 288 288 287 287 286 286 285 285 285 285 285 285 285 285 286 286 286 286 286 286 286 286 286 286 286 286 285 285 285 285 285 285 284 284 283 283
238 240 242 244 246 247 248 249 249 249 249 249 249 249 249 250 251 252 254 256 259 262 265 268 271 274 277 279 281 282 284 286 287 288 289 289 290 290 290 290 290 290 290 290 289 289 288 288 288 287 287 287 286 286 285 284 284 284 284 284 284 285 285 285 285 285 285 285 285 285 285 285 285 285 285 285 284 284 284 284 284 283 283 283 283 282
240 242 244 245 246 246 247 247 247 246 246 246 246 247 248 249 251 253 256 259 262 265 268 271 273 276 278 280 282 284 285 286 288 288 289 289 289 290 290 290 290 289 289 289 288 288 287 287 286 286 285 285 285 284 284 284 284 284 284 284 284 285 285 284 284 284 284 285 285 285 285 285 284 284 284 284 283 283 283 282 282 282 282 282 282 281
240 242 243 243 243 244 244 244 244 244 244 245 246 247 249 250 253 255 259 262 265 267 270 273 275 277 279 280 282 284 285 286 287 288 288 289 289 289 289 289 289 288 288 287 287 286 286 285 285 284 284 284 284 283 283 283 283 283 283 284 284 284 284 284 284 284 284 284 284 284 284 284 284 283 283 283 282 282 282 281 281 281 281 281 281 281
239 239 240 240 240 241 241 241 242 243 244 246 247 249 251 254 256 259 262 264 267 269 272 274 276 277 279 281 282 283 285 286 286 287 287 287 287 287 287 287 287 287 287 286 285 284 284 284 283 283 283 283 283 283 283 283 283 283 283 283 283 283 283 283 284 284 284 283 283 283 283 283 283 283 282 282 282 281 281 280 280 280 280 280 280 280
237 237 237 237 238 239 240 241 243 245 247 249 251 253 255 257 260 262 264 266 269 271 272 274 276 278 280 281 282 283 283 284 285 285 286 286 286 286 286 286 286 285 285 284 283 283 282 282 282 282 282 282 282 282 282 282 282 283 283 283 283 283 283 283 283 283 283 283 283 282 282 282 282 282 282 282 281 281 280 280 279 279 279 279 279 278
235 235 236 236 238 239 241 243 245 247 250 252 254 256 258 261 263 265 266 268 270 271 273 275 276 278 279 280 281 282 282 283 283 284 284 284 284 284 284 284 284 283 283 282 282 281 281 281 281 281 281 281 281 281 281 281 282 282 282 282 282 282 282 282 282 282 282 282 282 282 282 282 282 282 281 281 281 280 280 279 279 279 279 278 278 277
235 236 237 238 240 242 244 246 248 250 252 255 257 259 261 263 265 266 268 269 271 272 273 275 276 278 279 280 281 281 282 282 282 282 282 283 283 283 283 282 282 281 281 280 280 280 280 280 280 280 280 281 281 281 281 281 281 281 282 282 282 282 282 282 282 282 282 282 282 282 282 282 282 281 281 281 281 280 280 279 279 278 278 278 277 276
237 238 239 241 243 244 246 248 250 252 254 257 259 261 263 264 266 267 269 270 271 272 274 276 277 278 279 280 280 281 281 281 281 281 281 281 281 281 280 280 280 279 279 279 279 279 279 279 279 280 280 280 280 281 281 281 281 281 281 281 282 282 282 282 282 282 282 282 282 282 282 282 282 282 281 281 281 280 279 279 278 278 277 277 276 275
240 241 242 244 245 246 248 250 252 254 256 258 260 262 264 265 266 268 269 270 272 273 274 276 277 278 279 279 280 280 280 280 280 279 279 279 279 278 278 278 278 278 278 278 278 278 279 279 279 279 279 280 280 281 281 281 281 281 281 281 281 282 282 282 282 283 283 283 283 283 283 282 282 282 282 281 280 280 279 279 278 277 277 276 275 274
242 243 244 246 247 248 249 251 253 255 257 259 261 263 264 266 267 268 269 271 272 274 275 276 277 278 278 278 278 278 278 278 278 277 277 277 277 277 276 276 276 277 277 277 278 278 278 279 279 279 279 279 279 280 281 281 281 281 281 281 281 282 282 282 283 283 283 283 283 283 283 282 282 282 281 281 280 280 279 278 277 277 276 275 274 273
244 245 246 247 248 250 251 253 254 256 258 259 261 263 264 266 267 269 270 271 273 274 275 276 276 277 277 276 276 276 276 276 276 275 275 275 275 275 275 276 276 276 277 277 278 278 278 278 279 279 279 279 279 279 280 281 281 281 282 281 282 282 282 283 283 283 283 283 283 283 283 282 282 282 281 281 280 280 279 278 277 276 275 274 273 272
Height
5729 5731 5733 5734 5735 5735 5734 5734 5734 5734 5734 5734 5734 5734 5734 5734 5734 5735 5735 5736 5737 5737 5737 5737 5737 5737 5737 5737 5737 5737 5737 5737 5737 5737 5737 5736 5736 5736 5735 5735 5734 5734 5734 5733 5733 5733 5732 5732 5731 5730 5730 5729 5728 5728 5727 5726 5726 5725 5724 5724 5724 5723 5722 5721 5719 5718 5717 5716 5716 5715 5713 5712 5711 5709 5708 5707 5706 5705 5704 5703 5702 5700 5699 5698 5696 5695
5726 5728 5730 5731 5732 5732 5731 5731 5731 5731 5730 5731 5731 5731 5731 5731 5731 5732 5732 5733 5733 5734 5734 5734 5734 5734 5734 5734 5734 5734 5734 5734 5734 5734 5734 5733 5733 5733 5732 5732 5732 5731 5731 5731 5731 5730 5730 5729 5728 5728 5727 5727 5726 5725 5725 5724 5723 5722 5722 5721 5721 5720 5719 5718 5717 5716 5715 5714 5713 5712 5711 5710 5708 5707 5706 5705 5704 5703 5702 5701 5699 5698 5697 5696 5694 5693
5724 5725 5727 5728 5729 5729 5728 5728 5728 5728 5727 5727 5728 5728 5728 5728 5728 5729 5729 5730 5731 5731 5731 5731 5731 5731 5731 5731 5731 5731 5731 5731 5731 5731 5731 5731 5730 5730 5729 5729 5729 5729 5728 5728 5728 5728 5727 5726 5726 5725 5725 5724 5723 5723 5722 5721 5721 5720 5719 5719 5718 5717 5717 5716 5715 5713 5712 5711 5711 5710 5709 5707 5706 5705 5703 5702 5701 5701 5700 5699 5697 5696 5695 5694 5692 5691
5721 5722 5723 5725 5725 5725 5725 5725 5725 5725 5725 5725 5725 5725 5726 5726 5726 5726 5726 5727 5727 5728 5728 5728 5728 5728 5728 5728 5728 5728 5728 5728 5728 5728 5728 5728 5727 5727 5727 5726 5726 5726 5726 5725 5725 5725 5724 5724 5723 5723 5722 5722 5721 5720 5719 5719 5718 5717 5717 5716 5715 5715 5714 5713 5712 5711 5710 5709 5708 5707 5706 5705 5704 5703 5702 5700 5699 5698 5697 5696 5695 5694 5693 5692 5690 5689
5717 5718 5719 5721 5722 5722 5722 5722 5722 5722 5722 5722 5722 5722 5723 5723 5723 5723 5723 5724 5725 5725 5725 5725 5725 5725 5725 5725 5725 5726 5725 5725 5725 5725 5725 5725 5724 5724 5724 5723 5723 5723 5723 5722 5722 5722 5722 5721 5721 5720 5720 5719 5718 5717 5717 5716 5715 5715 5714 5713 5713 5712 5711 5710 5709 5709 5707 5707 5706 5705 5704 5703 5702 5701 5699 5698 5697 5696 5694 5693 5692 5692 5690 5689 5688 5687
5714 5714 5716 5717 5718 5719 5720 5720 5720 5719 5719 5720 5720 5720 5720 5720 5720 5720 5721 5722 5722 5722 5722 5722 5722 5722 5722 5722 5722 5722 5722 5722 5722 5722 5722 5722 5721 5721 5721 5720 5720 5720 5720 5720 5720 5719 5719 5718 5718 5717 5717 5716 5716 5715 5714 5713 5713 5712 5712 5711 5710 5709 5709 5708 5707 5706 5705 5704 5703 5702 5701 5700 5699 5698 5697 5696 5695 5694 5692 5691 5690 5689 5688 5687 5685 5684
5710 5711 5712 5713 5715 5716 5717 5717 5717 5717 5717 5717 5717 5717 5717 5717 5717 5718 5718 5719 5719 5719 5719 5719 5719 5719 5720 5720 5720 5720 5720 5719 5719 5719 5719 5719 5718 5718 5718 5717 5717 5717 5717 5717 5717 5716 5716 5716 5715 5715 5714 5714 5713 5712 5711 5710 5710 5709 5709 5708 5707 5707 5706 5705 5705 5704 5703 5702 5701 5699 5698 5697 5697 5696 5695 5694 5693 5692 5691 5689 5688 5687 5686 5684 5683 5682
5705 5707 5709 5710 5712 5712 5713 5713 5714 5714 5714 5714 5714 5714 5715 5715 5715 5715 5715 5716 5716 5716 5717 5717 5717 5717 5717 5717 5717 5717 5717 5717 5716 5716 5716 5716 5715 5715 5715 5714 5714 5714 5714 5714 5714 5713 5713 5713 5712 5712 5712 5711 5710 5709 5708 5708 5707 5707 5706 5706 5705 5704 5704 5703 5702 5702 5701 5699 5698 5697 5696 5695 5694 5693 5692 5691 5690 5689 5688 5687 5686 5685 5684 5682 5682 5680
5702 5703 5705 5707 5709 5709 5710 5710 5711 5711 5711 5711 5711 5712 5712 5712 5712 5713 5713 5713 5713 5713 5713 5713 5714 5714 5714 5714 5714 5714 5713 5713 5713 5713 5713 5712 5712 5712 5712 5711 5711 5711 5711 5711 5711 5711 5710 5710 5710 5709 5709 5708 5707 5707 5706 5705 5704 5704 5703 5703 5702 5702 5701 5701 5700 5699 5698 5697 5696 5695 5693 5692 5691 5690 5689 5688 5687 5687 5686 5685 5684 5683 5682 5681 5679 5678
5698 5700 5702 5704 5705 5706 5707 5707 5708 5708 5708 5708 5708 5708 5709 5709 5710 5710 5710 5710 5710 5711 5711 5711 5711 5712 5711 5711 5711 5711 5710 5710 5710 5710 5710 5709 5709 5709 5708 5708 5708 5708 5708 5707 5707 5707 5707 5707 5707 5706 5706 5705 5705 5704 5703 5702 5702 5701 5700 5700 5699 5699 5698 5698 5697 5696 5696 5694 5693 5692 5691 5690 5689 5687 5687 5686 5685 5684 5683 5682 5681 5680 5679 5678 5677 5676
5695 5697 5700 5701 5702 5703 5704 5704 5705 5705 5706 5706 5706 5706 5706 5707 5707 5707 5707 5707 5708 5708 5709 5709 5709 5709 5709 5708 5708 5708 5707 5707 5707 5707 5707 5706 5706 5706 5705 5705 5705 5705 5705 5705 5705 5704 5704 5704 5704 5703 5703 5702 5702 5702 5701 5700 5699 5698 5697 5697 5697 5696 5696 5695 5694 5693 5693 5692 5691 5690 5688 5687 5686 5685 5684 5683 5682 5681 5680 5679 5677 5677 5676 5675 5674 5672
5692 5695 5698 5698 5699 5700 5701 5702 5702 5703 5704 5704 5703 5703 5704 5704 5704 5704 5705 5704 5705 5706 5707 5706 5706 5706 5706 5705 5705 5705 5705 5704 5704 5704 5703 5703 5703 5702 5702 5702 5702 5702 5702 5702 5702 5702 5702 5701 5701 5701 5700 5700 5699 5699 5698 5698 5697 5696 5695 5694 5694 5693 5693 5692 5691 5691 5690 5689 5688 5687 5686 5685 5684 5682 5681 5680 5679 5678 5677 5676 5675 5674 5672 5672 5671 5670
5689 5692 5695 5696 5696 5697 5698 5699 5700 5701 5701 5701 5700 5700 5701 5701 5702 5702 5702 5702 5702 5703 5703 5704 5704 5703 5703 5702 5702 5702 5702 5702 5701 5701 5700 5700 5700 5700 5699 5699 5698 5698 5698 5698 5698 5699 5699 5699 5698 5698 5697 5697 5697 5696 5696 5695 5695 5694 5693 5692 5691 5691 5690 5689 5688 5688 5687 5686 5685 5684 5683 5682 5681 5680 5678 5677 5676 5675 5674 5673 5672 5671 5670 5669 5668 5667
5686 5689 5692 5693 5694 5694 5695 5696 5697 5697 5697 5697 5697 5698 5699 5699 5699 5699 5699 5699 5699 5700 5701 5702 5702 5701 5700 5700 5699 5699 5699 5698 5698 5698 5697 5697 5697 5697 5696 5696 5696 5696 5696 5696 5696 5696 5696 5696 5696 5695 5695 5694 5694 5693 5693 5692 5692 5691 5690 5690 5689 5688 5687 5687 5686 5685 5684 5683 5682 5681 5680 5679 5678 5677 5676 5674 5673 5672 5671 5670 5669 5668 5667 5666 5665 5664
5683 5686 5687 5689 5690 5691 5692 5692 5693 5693 5693 5694 5695 5697 5697 5696 5695 5695 5696 5696 5697 5697 5699 5699 5698 5698 5697 5697 5697 5696 5696 5695 5695 5695 5695 5694 5694 5694 5694 5693 5693 5693 5693 5693 5693 5693 5693 5693 5693 5692 5692 5692 5691 5691 5690 5690 5689 5688 5688 5687 5686 5686 5685 5684 5683 5682 5681 5680 5679 5678 5677 5676 5675 5674 5673 5672 5670 5669 5668 5667 5666 5665 5664 5663 5662 5661
5680 5682 5683 5684 5685 5687 5688 5689 5690 5690 5689 5691 5692 5692 5692 5691 5692 5692 5693 5693 5694 5695 5695 5695 5695 5695 5694 5694 5694 5694 5693 5692 5692 5692 5692 5691 5691 5691 5691 5690 5690 5690 5690 5690 5690 5690 5690 5690 5690 5690 5689 5689 5688 5688 5687 5687 5687 5686 5685 5684 5684 5683 5682 5681 5680 5679 5678 5677 5676 5675 5674 5673 5672 5671 5670 5668 5667 5666 5665 5664 5663 5662 5661 5660 5659 5658
5680 5681 5680 5681 5682 5683 5684 5686 5686 5686 5686 5687 5688 5688 5687 5688 5688 5689 5689 5689 5690 5691 5691 5691 5691 5691 5691 5691 5691 5691 5691 5689 5689 5689 5689 5688 5688 5688 5688 5687 5687 5687 5687 5687 5687 5687 5687 5687 5687 5687 5687 5686 5686 5686 5685 5684 5684 5683 5682 5682 5681 5680 5679 5678 5677 5676 5675 5674 5673 5672 5671 5670 5669 5667 5667 5665 5664 5663 5662 5661 5660 5659 5658 5657 5656 5655
5678 5679 5679 5679 5679 5680 5681 5681 5681 5681 5682 5683 5684 5684 5684 5685 5685 5685 5685 5686 5686 5687 5687 5687 5688 5688 5688 5687 5687 5687 5687 5687 5686 5686 5686 5686 5685 5685 5685 5684 5684 5684 5684 5684 5684 5684 5684 5684 5684 5684 5684 5683 5683 5683 5682 5682 5681 5680 5680 5679 5678 5677 5676 5675 5674 5673 5672 5671 5670 5669 5668 5667 5666 5665 5663 5662 5661 5660 5659 5658 5657 5656 5655 5654 5653 5652
5676 5677 5677 5677 5676 5676 5676 5677 5677 5677 5678 5679 5679 5680 5682 5682 5682 5682 5682 5682 5683 5683 5683 5684 5684 5684 5684 5684 5684 5684 5684 5684 5683 5683 5683 5683 5682 5682 5682 5682 5681 5681 5681 5682 5682 5682 5681 5681 5681 5681 5681 5681 5680 5680 5679 5679 5678 5677 5677 5675 5674 5674 5673 5672 5671 5670 5669 5668 5667 5666 5665 5664 5663 5662 5661 5660 5659 5657 5657 5655 5654 5653 5652 5652 5651 5650
5672 5673 5673 5672 5672 5672 5672 5673 5673 5674 5675 5675 5676 5677 5677 5677 5678 5678 5678 5679 5679 5679 5680 5680 5680 5681 5681 5681 5681 5681 5681 5681 5680 5680 5680 5680 5680 5679 5679 5679 5678 5678 5678 5679 5679 5679 5678 5678 5678 5678 5678 5678 5677 5677 5677 5676 5675 5674 5673 5672 5671 5670 5669 5668 5668 5667 5666 5665 5664 5663 5662 5661 5660 5659 5658 5657 5656 5655 5654 5653 5652 5651 5650 5649 5648 5647
5667 5668 5668 5668 5668 5668 5668 5669 5670 5671 5671 5672 5673 5673 5673 5674 5674 5675 5675 5675 5676 5676 5676 5677 5677 5677 5677 5678 5677 5677 5677 5677 5677 5677 5677 5677 5677 5677 5677 5676 5676 5675 5676 5676 5676 5676 5676 5675 5675 5675 5675 5675 5674 5674 5673 5672 5672 5671 5670 5669 5668 5667 5666 5665 5665 5664 5663 5662 5661 5660 5659 5658 5657 5656 5655 5654 5653 5652 5651 5650 5649 5648 5647 5646 5645 5644
5662 5662 5663 5664 5664 5665 5665 5666 5667 5667 5668 5668 5669 5669 5669 5670 5671 5671 5671 5672 5672 5672 5673 5673 5673 5673 5674 5674 5674 5673 5674 5674 5674 5674 5673 5673 5673 5674 5674 5673 5673 5672 5673 5673 5673 5673 5673 5672 5672 5672 5672 5672 5671 5671 5670 5669 5668 5667 5667 5666 5665 5664 5663 5662 5661 5660 5659 5658 5657 5657 5656 5655 5654 5653 5652 5651 5650 5649 5648 5647 5647 5646 5645 5644 5643 5642
5657 5658 5659 5660 5661 5661 5662 5662 5663 5663 5664 5664 5665 5665 5666 5667 5667 5667 5668 5668 5669 5669 5669 5669 5670 5670 5670 5670 5670 5670 5670 5670 5670 5670 5670 5670 5670 5670 5671 5671 5670 5670 5670 5670 5670 5670 5670 5670 5670 5669 5669 5668 5668 5667 5667 5666 5665 5664 5663 5662 5662 5661 5660 5659 5658 5657 5656 5655 5654 5653 5652 5652 5651 5650 5649 5648 5647 5647 5646 5645 5644 5643 5642 5641 5640 5640
5653 5654 5655 5656 5657 5657 5658 5659 5659 5659 5660 5661 5661 5661 5662 5662 5663 5663 5664 5664 5665 5665 5665 5666 5666 5666 5667 5667 5667 5667 5666 5667 5667 5667 5667 5667 5667 5667 5667 5667 5667 5667 5667 5667 5667 5667 5667 5667 5666 5666 5666 5665 5664 5664 5663 5662 5662 5661 5660 5659 5658 5657 5657 5656 5655 5654 5653 5652 5651 5650 5650 5649 5648 5647 5646 5645 5645 5644 5643 5642 5641 5640 5639 5639 5638 5637
5650 5651 5651 5652 5653 5653 5654 5655 5655 5656 5656 5657 5657 5657 5658 5658 5659 5659 5660 5660 5661 5661 5662 5662 5662 5662 5663 5664 5664 5663 5663 5663 5663 5664 5664 5664 5664 5664 5664 5664 5665 5664 5664 5664 5664 5664 5664 5663 5663 5662 5662 5662 5661 5660 5660 5659 5658 5657 5657 5656 5655 5654 5653 5652 5651 5650 5650 5649 5648 5647 5647 5646 5645 5644 5643 5642 5642 5641 5640 5639 5638 5637 5637 5636 5635 5635
5646 5647 5647 5648 5649 5650 5651 5651 5652 5652 5652 5653 5653 5653 5654 5654 5655 5655 5656 5656 5657 5658 5658 5658 5658 5659 5659 5660 5660 5660 5660 5660 5660 5660 5661 5661 5661 5661 5661 5661 5662 5661 5661 5661 5661 5661 5660 5660 5659 5659 5659 5658 5658 5657 5656 5656 5655 5654 5653 5652 5652 5651 5650 5649 5648 5647 5647 5646 5645 5644 5643 5643 5642 5642 5641 5640 5639 5638 5637 5636 5636 5635 5634 5633 5633 5632
5642 5643 5644 5645 5645 5646 5647 5647 5648 5648 5648 5649 5649 5649 5650 5651 5651 5652 5652 5652 5654 5654 5654 5655 5655 5655 5656 5656 5657 5657 5657 5657 5657 5657 5658 5658 5658 5657 5658 5658 5658 5658 5658 5657 5657 5657 5657 5656 5656 5656 5655 5655 5654 5654 5653 5652 5652 5651 5650 5649 5648 5647 5647 5646 5645 5644 5643 5642 5642 5641 5641 5640 5639 5638 5637 5637 5636 5635 5635 5634 5633 5632 5632 5631 5630 5630
5638 5639 5640 5641 5642 5642 5643 5643 5644 5644 5644 5645 5645 5646 5646 5647 5647 5648 5648 5649 5650 5651 5651 5651 5652 5652 5652 5653 5653 5654 5654 5654 5654 5654 5654 5655 5654 5654 5654 5655 5654 5654 5654 5654 5654 5653 5653 5653 5653 5652 5652 5651 5651 5650 5650 5649 5648 5647 5647 5646 5645 5644 5643 5643 5642 5641 5640 5640 5639 5638 5637 5637 5636 5635 5635 5634 5633 5632 5632 5631 5631 5630 5629 5628 5628 5627
5635 5636 5637 5637 5638 5638 5639 5639 5640 5640 5640 5641 5641 5642 5642 5643 5644 5644 5644 5646 5647 5647 5647 5648 5648 5649 5649 5650 5650 5651 5651 5651 5651 5651 5651 5651 5651 5651 5652 5651 5651 5651 5651 5651 5650 5650 5650 5650 5650 5649 5648 5647 5647 5647 5646 5646 5645 5644 5643 5642 5642 5641 5640 5640 5639 5638 5637 5637 5636 5635 5635 5634 5633 5632 5632 5631 5631 5630 5629 5629 5628 5627 5627 5626 5625 5625
5631 5632 5633 5633 5634 5634 5635 5635 5635 5636 5637 5637 5637 5638 5639 5640 5640 5641 5641 5642 5644 5644 5644 5645 5645 5646 5646 5647 5647 5647 5647 5647 5647 5647 5647 5647 5647 5647 5648 5648 5647 5647 5648 5647 5647 5646 5646 5647 5647 5646 5645 5644 5643 5643 5643 5642 5642 5641 5640 5639 5638 5638 5637 5637 5636 5635 5634 5634 5633 5632 5632 5631 5630 5630 5629 5628 5628 5627 5627 5626 5625 5625 5624 5623 5623 5622
5627 5628 5629 5629 5630 5630 5631 5631 5631 5632 5633 5633 5634 5635 5635 5636 5637 5637 5638 5639 5640 5641 5641 5642 5642 5642 5643 5643 5643 5644 5644 5644 5644 5644 5644 5644 5643 5643 5645 5645 5644 5644 5644 5644 5643 5642 5642 5642 5643 5643 5642 5641 5640 5640 5639 5639 5638 5637 5637 5636 5635 5634 5634 5633 5632 5632 5631 5631 5630 5630 5629 5628 5627 5627 5626 5626 5625 5625 5624 5623 5623 5622 5622 5621 5620 5620
5624 5625 5625 5625 5626 5626 5626 5627 5627 5628 5629 5630 5631 5631 5632 5633 5634 5634 5635 5636 5637 5638 5638 5638 5639 5639 5640 5640 5640 5640 5640 5641 5641 5641 5641 5641 5640 5640 5641 5641 5641 5640 5640 5640 5640 5639 5639 5638 5638 5639 5639 5638 5637 5637 5636 5635 5635 5634 5633 5633 5632 5631 5630 5630 5629 5629 5628 5627 5627 5627 5626 5625 5625 5624 5623 5623 5622 5622 5621 5621 5620 5620 5619 5618 5617 5617
5620 5621 5621 5621 5621 5622 5622 5623 5624 5625 5626 5627 5627 5628 5629 5630 5631 5631 5632 5632 5633 5634 5635 5635 5635 5636 5636 5636 5637 5637 5637 5637 5637 5637 5637 5637 5636 5636 5637 5637 5637 5637 5637 5636 5636 5636 5636 5635 5635 5635 5635 5635 5634 5633 5633 5632 5631 5631 5630 5629 5628 5627 5627 5627 5626 5626 5625 5625 5624 5623 5623 5622 5622 5621 5621 5620 5620 5619 5619 5618 5617 5617 5616 5616 5615 5614
5616 5617 5617 5617 5617 5618 5619 5620 5621 5622 5622 5623 5624 5625 5626 5627 5627 5628 5629 5629 5630 5630 5631 5632 5632 5632 5632 5632 5632 5633 5633 5633 5633 5633 5632 5632 5632 5633 5633 5633 5634 5633 5633 5633 5632 5632 5632 5632 5631 5631 5631 5630 5630 5630 5630 5629 5628 5627 5626 5626 5625 5624 5623 5623 5623 5622 5622 5622 5621 5621 5620 5619 5619 5618 5618 5617 5617 5616 5616 5615 5615 5614 5614 5613 5612 5612
5612 5612 5612 5613 5614 5615 5616 5616 5617 5618 5619 5620 5620 5621 5622 5623 5624 5624 5625 5626 5626 5627 5627 5627 5628 5628 5628 5628 5628 5629 5629 5629 5629 5629 5629 5629 5629 5629 5629 5630 5630 5630 5630 5629 5629 5629 5628 5628 5627 5627 5627 5627 5626 5626 5626 5625 5625 5623 5622 5622 5622 5621 5620 5620 5620 5619 5619 5618 5618 5617 5617 5617 5616 5615 5615 5614 5614 5613 5613 5612 5612 5612 5611 5611 5610 5609
5607 5608 5608 5609 5610 5611 5612 5613 5614 5615 5616 5616 5617 5618 5619 5620 5620 5621 5622 5622 5622 5623 5623 5623 5623 5624 5624 5624 5625 5625 5625 5625 5625 5626 5625 5625 5625 5626 5626 5626 5626 5626 5626 5625 5625 5625 5625 5624 5624 5624 5624 5623 5622 5622 5622 5622 5621 5620 5619 5619 5618 5618 5617 5617 5617 5616 5616 5615 5615 5614 5614 5613 5613 5612 5612 5612 5611 5611 5610 5610 5609 5609 5608 5608 5607 5607
5603 5603 5605 5606 5607 5608 5609 5610 5610 5611 5612 5613 5613 5614 5615 5616 5617 5617 5617 5618 5618 5619 5619 5619 5619 5620 5620 5620 5621 5621 5621 5621 5622 5622 5622 5622 5622 5622 5622 5622 5622 5622 5622 5622 5621 5621 5621 5621 5620 5620 5620 5619 5619 5619 5618 5617 5617 5617 5616 5616 5615 5614 5614 5613 5613 5613 5612 5612 5612 5611 5611 5610 5610 5609 5609 5608 5608 5607 5607 5607 5606 5606 5606 5605 5605 5604
5599 5600 5601 5602 5603 5604 5605 5606 5607 5608 5609 5609 5610 5611 5611 5612 5612 5613 5613 5614 5614 5615 5615 5615 5616 5616 5616 5616 5617 5617 5617 5617 5617 5618 5618 5618 5618 5618 5618 5618 5618 5618 5618 5618 5618 5617 5617 5617 5616 5616 5616 5616 5615 5615 5615 5614 5614 5613 5612 5612 5612 5611 5611 5610 5610 5610 5609 5609 5608 5608 5607 5607 5607 5606 5606 5605 5605 5604 5604 5603 5603 5603 5602 5602 5602 5601
5595 5596 5597 5599 5600 5601 5602 5603 5603 5604 5605 5606 5606 5607 5607 5608 5608 5609 5609 5610 5610 5611 5611 5612 5612 5612 5612 5612 5612 5613 5613 5613 5614 5614 5614 5614 5614 5614 5614 5614 5614 5614 5614 5614 5614 5613 5613 5613 5612 5612 5612 5612 5612 5611 5611 5611 5611 5610 5609 5609 5608 5608 5607 5607 5607 5606 5606 5606 5605 5604 5604 5603 5603 5603 5602 5602 5602 5601 5601 5600 5600 5600 5600 5599 5599 5598
5592 5593 5594 5595 5596 5597 5598 5599 5599 5600 5601 5602 5602 5602 5603 5604 5604 5605 5606 5606 5607 5607 5607 5608 5608 5608 5608 5608 5609 5609 5609 5609 5610 5610 5610 5610 5610 5610 5611 5611 5610 5610 5610 5610 5610 5610 5609 5609 5608 5608 5608 5608 5608 5608 5607 5607 5607 5607 5606 5606 5605 5605 5604 5604 5603 5603 5602 5602 5602 5601 5601 5600 5600 5600 5599 5599 5598 5598 5598 5597 5597 5597 5596 5596 5596 5595
5588 5589 5591 5592 5592 5593 5594 5595 5595 5596 5597 5597 5598 5598 5599 5600 5601 5601 5601 5602 5602 5603 5603 5604 5604 5604 5604 5604 5605 5605 5605 5605 5606 5606 5606 5607 5607 5607 5607 5607 5607 5606 5606 5606 5606 5605 5605 5605 5605 5604 5604 5604 5605 5604 5604 5604 5603 5603 5603 5603 5602 5602 5601 5601 5600 5600 5599 5598 5598 5598 5597 5597 5597 5597 5596 5596 5595 5595 5595 5594 5594 5593 5593 5593 5593 5592
5585 5586 5587 5588 5588 5589 5590 5591 5591 5592 5593 5593 5594 5595 5595 5596 5597 5597 5597 5598 5598 5599 5599 5599 5600 5600 5600 5600 5600 5601 5601 5602 5602 5602 5602 5603 5603 5603 5603 5603 5602 5602 5602 5602 5602 5601 5601 5601 5601 5601 5600 5601 5601 5601 5600 5600 5600 5600 5600 5599 5599 5598 5598 5597 5597 5597 5596 5595 5594 5594 5594 5594 5593 5593 5593 5593 5592 5592 5592 5591 5591 5590 5590 5590 5590 5589
5581 5582 5583 5583 5584 5585 5586 5587 5587 5588 5589 5590 5590 5591 5591 5592 5592 5592 5593 5593 5594 5594 5595 5595 5596 5596 5596 5596 5596 5597 5597 5597 5598 5598 5599 5599 5599 5599 5599 5599 5598 5598 5598 5598 5598 5597 5597 5597 5597 5597 5597 5597 5597 5597 5597 5597 5596 5596 5596 5596 5596 5595 5594 5594 5593 5593 5592 5592 5591 5591 5591 5591 5590 5590 5590 5590 5589 5589 5588 5588 5587 5587 5587 5587 5586 5586
5577 5578 5578 5579 5580 5581 5582 5583 5583 5584 5585 5586 5586 5586 5587 5587 5587 5588 5588 5589 5589 5590 5590 5591 5591 5592 5592 5592 5592 5593 5593 5594 5594 5595 5595 5595 5595 5595 5595 5595 5595 5594 5594 5594 5594 5594 5593 5593 5593 5594 5594 5594 5594 5593 5593 5593 5593 5592 5592 5592 5592 5592 5591 5590 5590 5589 5589 5588 5588 5588 5587 5587 5587 5587 5587 5586 5586 5586 5585 5585 5584 5584 5584 5583 5583 5583
5573 5573 5574 5575 5576 5577 5578 5579 5580 5580 5581 5582 5582 5582 5582 5583 5583 5584 5584 5584 5585 5586 5586 5587 5587 5587 5588 5588 5589 5589 5590 5590 5590 5591 5592 5592 5592 5592 5592 5591 5591 5591 5590 5590 5590 5590 5591 5590 5590 5590 5590 5590 5590 5590 5590 5589 5589 5589 5588 5588 5588 5587 5587 5587 5586 5586 5586 5585 5584 5584 5584 5584 5583 5583 5583 5583 5583 5582 5582 5581 5581 5581 5580 5580 5580 5580
5569 5570 5570 5571 5572 5573 5574 5575 5576 5577 5577 5577 5578 5578 5578 5578 5579 5579 5580 5580 5581 5582 5582 5582 5583 5584 5584 5584 5585 5586 5586 5587 5587 5587 5587 5587 5587 5587 5587 5587 5587 5587 5587 5587 5587 5587 5587 5587 5587 5587 5586 5586 5587 5587 5587 5586 5586 5585 5584 5584 5584 5584 5583 5583 5582 5582 5582 5582 5581 5581 5581 5580 5580 5580 5580 5580 5579 5579 5578 5578 5578 5577 5577 5577 5577 5577
5565 5566 5567 5567 5568 5569 5570 5571 5572 5572 5573 5573 5573 5574 5574 5574 5575 5575 5576 5576 5577 5578 5578 5578 5579 5580 5580 5581 5581 5582 5582 5582 5583 5583 5583 5583 5583 5583 5583 5583 5583 5583 5583 5583 5583 5583 5583 5583 5583 5583 5583 5583 5582 5582 5582 5582 5582 5582 5581 5580 5580 5580 5580 5579 5579 5578 5578 5578 5577 5577 5577 5577 5577 5577 5576 5576 5576 5575 5575 5574 5574 5574 5573 5573 5573 5573
5561 5562 5562 5563 5564 5565 5566 5566 5567 5568 5568 5569 5569 5569 5570 5570 5571 5571 5572 5572 5573 5574 5575 5575 5576 5576 5577 5577 5577 5578 5578 5579 5579 5579 5579 5580 5580 5580 5580 5579 5579 5579 5579 5579 5579 5579 5579 5579 5579 5579 5579 5579 5579 5578 5578 5578 5578 5578 5577 5577 5576 5576 5576 5575 5575 5575 5574 5574 5573 5573 5573 5573 5573 5573 5573 5572 5572 5572 5572 5571 5570 5570 5570 5570 5570 5569
5557 5557 5558 5559 5560 5561 5561 5562 5563 5563 5564 5564 5565 5565 5566 5566 5567 5567 5568 5569 5570 5571 5571 5572 5572 5572 5573 5573 5574 5574 5575 5575 5575 5575 5575 5576 5576 5576 5576 5575 5576 5576 5576 5576 5576 5576 5576 5576 5575 5575 5576 5576 5575 5575 5574 5574 5574 5574 5573 5573 5572 5572 5572 5572 5571 5571 5571 5570 5570 5569 5569 5569 5569 5569 5569 5568 5568 5568 5568 5567 5567 5566 5566 5566 5566 5566
5553 5553 5554 5555 5556 5556 5557 5558 5558 5559 5560 5560 5561 5561 5562 5562 5562 5563 5564 5565 5566 5567 5567 5568 5568 5569 5569 5569 5570 5570 5571 5571 5571 5571 5571 5572 5572 5572 5572 5572 5572 5572 5572 5572 5572 5572 5572 5572 5571 5571 5571 5572 5572 5571 5570 5569 5569 5570 5570 5569 5569 5568 5568 5567 5567 5567 5567 5566 5566 5565 5565 5565 5564 5564 5564 5564 5564 5564 5564 5564 5563 5562 5562 5562 5562 5562
5549 5549 5550 5551 5552 5552 5553 5554 5554 5555 5556 5556 5557 5557 5558 5558 5559 5560 5560 5561 5562 5563 5563 5564 5565 5565 5565 5566 5566 5566 5567 5567 5567 5567 5567 5567 5568 5568 5568 5567 5568 5568 5568 5568 5568 5568 5568 5568 5567 5567 5567 5567 5568 5568 5567 5566 5565 5565 5565 5565 5565 5565 5564 5563 5563 5563 5562 5562 5562 5561 5561 5560 5560 5560 5560 5560 5560 5560 5560 5560 5559 5559 5558 5558 5558 5558